EWG6AC EHAM-EDDH

Flight info

Callsign EWG6AC
Flight time 0h 37m
Altitude 37000
Route ANDIK M105 RIBSO RIBSO7A
Aircraft A319/M-SDE3FGHIRWY/LB1

Departure

Time 2026-05-06 18:03
Airport Amsterdam Airport Schiphol (EHAM)

Arrival

Time 2026-05-06 18:41
Airport Hamburg Helmut Schmidt Airport (EDDH)
Time Latitude Longitude Altitude Speed Heading
2026-05-06 17:30 52.30341 4.76426 -2 ft 0 kts 238°
2026-05-06 17:51 52.30343 4.76431 -2 ft 2 kts 238°
2026-05-06 17:51 52.30356 4.76462 -2 ft 4 kts 226°
2026-05-06 17:52 52.30377 4.76485 -2 ft 4 kts 183°
2026-05-06 17:52 52.30390 4.76482 -2 ft 0 kts 148°
2026-05-06 17:55 52.30386 4.76486 -2 ft 1 kts 148°
2026-05-06 17:56 52.30369 4.76503 -2 ft 4 kts 148°
2026-05-06 17:56 52.30340 4.76529 -2 ft 7 kts 158°
2026-05-06 17:56 52.30286 4.76492 -2 ft 10 kts 231°
2026-05-06 17:56 52.30241 4.76379 -2 ft 13 kts 237°
2026-05-06 17:57 52.30191 4.76251 -2 ft 14 kts 237°
2026-05-06 17:57 52.30140 4.76117 -2 ft 14 kts 238°
2026-05-06 17:57 52.30086 4.75975 -2 ft 15 kts 238°
2026-05-06 17:57 52.30029 4.75827 -2 ft 16 kts 238°
2026-05-06 17:58 52.29971 4.75673 -2 ft 16 kts 238°
2026-05-06 17:58 52.29911 4.75515 -2 ft 17 kts 238°
2026-05-06 17:58 52.29847 4.75348 -2 ft 15 kts 239°
2026-05-06 17:58 52.29847 4.75188 -2 ft 15 kts 301°
2026-05-06 17:59 52.29917 4.75053 -2 ft 16 kts 311°
2026-05-06 17:59 52.29993 4.74914 -2 ft 17 kts 312°
2026-05-06 17:59 52.30072 4.74765 -2 ft 18 kts 311°
2026-05-06 17:59 52.30155 4.74610 -2 ft 19 kts 311°
2026-05-06 18:00 52.30243 4.74447 -2 ft 19 kts 311°
2026-05-06 18:00 52.30324 4.74298 -2 ft 13 kts 311°
2026-05-06 18:00 52.30373 4.74193 -2 ft 11 kts 292°
2026-05-06 18:00 52.30373 4.74130 -2 ft 2 kts 256°
2026-05-06 18:01 52.30366 4.74104 -2 ft 3 kts 248°
2026-05-06 18:01 52.30359 4.74083 -2 ft 1 kts 242°
2026-05-06 18:01 52.30357 4.74075 -2 ft 2 kts 242°
2026-05-06 18:01 52.30327 4.74039 -2 ft 7 kts 213°
2026-05-06 18:02 52.30280 4.73988 -2 ft 9 kts 215°
2026-05-06 18:02 52.30229 4.73926 -3 ft 10 kts 218°
2026-05-06 18:02 52.30185 4.73826 -3 ft 11 kts 257°
2026-05-06 18:02 52.30214 4.73736 -4 ft 6 kts 343°
2026-05-06 18:03 52.30272 4.73742 -7 ft 17 kts
2026-05-06 18:03 52.30691 4.73782 -2 ft 101 kts
2026-05-06 18:03 52.31623 4.73872 42 ft 160 kts
2026-05-06 18:03 52.32731 4.74017 746 ft 162 kts
2026-05-06 18:04 52.33824 4.74505 1529 ft 170 kts 20°
2026-05-06 18:04 52.35012 4.75188 2048 ft 192 kts 22°
2026-05-06 18:04 52.36346 4.75980 2600 ft 216 kts 22°
2026-05-06 18:04 52.37806 4.76992 3276 ft 238 kts 35°
2026-05-06 18:05 52.39032 4.78876 4247 ft 245 kts 45°
2026-05-06 18:05 52.40306 4.80784 5368 ft 250 kts 41°
2026-05-06 18:05 52.41661 4.82639 6411 ft 257 kts 39°
2026-05-06 18:05 52.43076 4.84517 7369 ft 263 kts 39°
2026-05-06 18:06 52.44506 4.86417 8390 ft 268 kts 38°
2026-05-06 18:06 52.45972 4.88381 9320 ft 276 kts 38°
2026-05-06 18:06 52.47479 4.90419 10142 ft 288 kts 38°
2026-05-06 18:06 52.49063 4.92572 10544 ft 312 kts 38°
2026-05-06 18:07 52.50791 4.94931 11021 ft 331 kts 38°
2026-05-06 18:07 52.52602 4.97426 11812 ft 339 kts 38°
2026-05-06 18:07 52.54395 4.99908 12647 ft 345 kts 38°
2026-05-06 18:07 52.56239 5.02461 13509 ft 349 kts 38°
2026-05-06 18:08 52.58115 5.05055 14258 ft 355 kts 38°
2026-05-06 18:08 52.60023 5.07690 14985 ft 360 kts 38°
2026-05-06 18:08 52.61953 5.10362 15706 ft 366 kts 38°
2026-05-06 18:08 52.63914 5.13077 16430 ft 371 kts 38°
2026-05-06 18:09 52.65898 5.15831 17167 ft 376 kts 38°
2026-05-06 18:09 52.66384 5.16506 17326 ft 378 kts 37°
2026-05-06 18:09 52.68153 5.18970 17909 ft 383 kts 38°
2026-05-06 18:10 52.70204 5.21826 18578 ft 388 kts 38°
2026-05-06 18:10 52.72203 5.24862 19193 ft 394 kts 46°
2026-05-06 18:10 52.73885 5.28493 19847 ft 400 kts 57°
2026-05-06 18:10 52.75146 5.32620 20458 ft 406 kts 68°
2026-05-06 18:11 52.76096 5.37033 21124 ft 409 kts 70°
2026-05-06 18:11 52.76727 5.39981 21548 ft 412 kts 70°
2026-05-06 18:11 52.78024 5.46002 22379 ft 417 kts 70°
2026-05-06 18:11 52.79005 5.50533 23010 ft 421 kts 70°
2026-05-06 18:12 52.79982 5.55051 23545 ft 425 kts 70°
2026-05-06 18:12 52.80977 5.59671 24091 ft 427 kts 70°
2026-05-06 18:12 52.81972 5.64311 24601 ft 430 kts 71°
2026-05-06 18:12 52.82978 5.68978 25106 ft 432 kts 71°
2026-05-06 18:13 52.83905 5.73723 25581 ft 435 kts 73°
2026-05-06 18:13 52.84757 5.78563 26079 ft 437 kts 75°
2026-05-06 18:13 52.85560 5.83432 26540 ft 440 kts 76°
2026-05-06 18:13 52.86354 5.88341 27042 ft 443 kts 76°
2026-05-06 18:14 52.87158 5.93267 27505 ft 446 kts 76°
2026-05-06 18:14 52.87987 5.98247 27961 ft 449 kts 75°
2026-05-06 18:14 52.88830 6.03240 28422 ft 452 kts 75°
2026-05-06 18:14 52.89688 6.08252 28857 ft 454 kts 75°
2026-05-06 18:15 52.90555 6.13300 29311 ft 457 kts 75°
2026-05-06 18:15 52.91425 6.18373 29742 ft 460 kts 75°
2026-05-06 18:15 52.92294 6.23487 30131 ft 462 kts 75°
2026-05-06 18:15 52.93162 6.28635 30475 ft 465 kts 75°
2026-05-06 18:16 52.94031 6.33810 30828 ft 467 kts 75°
2026-05-06 18:16 52.94903 6.39012 31174 ft 469 kts 75°
2026-05-06 18:16 52.95778 6.44249 31508 ft 471 kts 75°
2026-05-06 18:16 52.96650 6.49479 31975 ft 470 kts 75°
2026-05-06 18:17 52.97518 6.54704 32468 ft 469 kts 75°
2026-05-06 18:17 52.98380 6.59906 32938 ft 468 kts 75°
2026-05-06 18:17 52.99237 6.65105 33435 ft 466 kts 75°
2026-05-06 18:17 53.00089 6.70282 33934 ft 465 kts 76°
2026-05-06 18:18 53.00937 6.75455 34327 ft 464 kts 76°
2026-05-06 18:18 53.01781 6.80631 34684 ft 465 kts 76°
2026-05-06 18:18 53.02624 6.85816 35024 ft 465 kts 76°
2026-05-06 18:18 53.03470 6.91009 35344 ft 466 kts 76°
2026-05-06 18:19 53.04318 6.96212 35648 ft 467 kts 76°
2026-05-06 18:19 53.05157 7.01367 35956 ft 468 kts 76°
2026-05-06 18:19 53.05726 7.04888 36140 ft 468 kts 76°
2026-05-06 18:19 53.06842 7.11822 36482 ft 469 kts 76°
2026-05-06 18:20 53.07412 7.15371 36648 ft 470 kts 76°
2026-05-06 18:20 53.08522 7.22343 36901 ft 471 kts 76°
2026-05-06 18:20 53.09353 7.27597 36673 ft 468 kts 76°
2026-05-06 18:20 53.09914 7.31143 36218 ft 468 kts 76°
2026-05-06 18:21 53.10737 7.36369 35554 ft 467 kts 76°
2026-05-06 18:21 53.11554 7.41582 34915 ft 465 kts 76°
2026-05-06 18:21 53.12371 7.46784 34283 ft 463 kts 76°
2026-05-06 18:21 53.13183 7.51952 33603 ft 462 kts 76°
2026-05-06 18:22 53.13993 7.57126 32780 ft 461 kts 77°
2026-05-06 18:22 53.14798 7.62301 31912 ft 462 kts 77°
2026-05-06 18:22 53.15599 7.67474 31214 ft 459 kts 77°
2026-05-06 18:22 53.16391 7.72591 30631 ft 453 kts 77°
2026-05-06 18:23 53.17175 7.77658 30081 ft 449 kts 77°
2026-05-06 18:23 53.17946 7.82660 29459 ft 444 kts 77°
2026-05-06 18:23 53.18706 7.87611 28643 ft 438 kts 77°
2026-05-06 18:23 53.19456 7.92523 27849 ft 434 kts 77°
2026-05-06 18:24 53.20194 7.97374 27083 ft 429 kts 76°
2026-05-06 18:24 53.20921 8.02177 26326 ft 425 kts 76°
2026-05-06 18:24 53.21639 8.06944 25609 ft 424 kts 76°
2026-05-06 18:24 53.22359 8.11723 24904 ft 425 kts 76°
2026-05-06 18:25 53.23080 8.16505 24219 ft 425 kts 76°
2026-05-06 18:25 53.23789 8.21222 23540 ft 426 kts 76°
2026-05-06 18:25 53.24507 8.26021 22741 ft 426 kts 75°
2026-05-06 18:25 53.25222 8.30820 21955 ft 426 kts 75°
2026-05-06 18:26 53.25934 8.35615 21197 ft 425 kts 75°
2026-05-06 18:26 53.26646 8.40407 20453 ft 423 kts 76°
2026-05-06 18:26 53.27350 8.45154 19707 ft 418 kts 76°
2026-05-06 18:26 53.28041 8.49826 19007 ft 411 kts 76°
2026-05-06 18:27 53.28719 8.54422 18317 ft 406 kts 76°
2026-05-06 18:27 53.29387 8.58979 17545 ft 401 kts 76°
2026-05-06 18:27 53.30044 8.63474 16774 ft 395 kts 76°
2026-05-06 18:27 53.30688 8.67912 16011 ft 390 kts 75°
2026-05-06 18:28 53.31320 8.72286 15274 ft 382 kts 75°
2026-05-06 18:28 53.31933 8.76534 14560 ft 371 kts 76°
2026-05-06 18:28 53.32528 8.80669 13861 ft 360 kts 76°
2026-05-06 18:28 53.33110 8.84697 13092 ft 350 kts 75°
2026-05-06 18:29 53.33675 8.88608 12331 ft 342 kts 75°
2026-05-06 18:29 53.34230 8.92451 11713 ft 336 kts 75°
2026-05-06 18:29 53.34770 8.96208 11231 ft 329 kts 75°
2026-05-06 18:29 53.35301 8.99928 10770 ft 326 kts 75°
2026-05-06 18:30 53.35821 9.03594 10375 ft 322 kts 75°
2026-05-06 18:30 53.36333 9.07204 9984 ft 316 kts 75°
2026-05-06 18:30 53.36827 9.10697 9672 ft 299 kts 75°
2026-05-06 18:30 53.37291 9.13995 9396 ft 285 kts 75°
2026-05-06 18:31 53.37744 9.17210 9021 ft 281 kts 75°
2026-05-06 18:31 53.38187 9.20380 8595 ft 277 kts 75°
2026-05-06 18:31 53.38624 9.23503 8189 ft 275 kts 75°
2026-05-06 18:31 53.39061 9.26619 7772 ft 275 kts 76°
2026-05-06 18:32 53.39495 9.29721 7412 ft 272 kts 76°
2026-05-06 18:32 53.39918 9.32752 7073 ft 269 kts 76°
2026-05-06 18:32 53.40341 9.35792 6720 ft 266 kts 76°
2026-05-06 18:32 53.40759 9.38799 6376 ft 264 kts 76°
2026-05-06 18:33 53.41176 9.41800 6012 ft 263 kts 76°
2026-05-06 18:33 53.41591 9.44783 5690 ft 261 kts 76°
2026-05-06 18:33 53.41998 9.47731 5379 ft 258 kts 76°
2026-05-06 18:33 53.42398 9.50647 5066 ft 255 kts 76°
2026-05-06 18:34 53.42788 9.53484 4892 ft 242 kts 76°
2026-05-06 18:34 53.43150 9.56119 4719 ft 225 kts 76°
2026-05-06 18:34 53.43520 9.58638 4485 ft 220 kts 70°
2026-05-06 18:34 53.44214 9.60882 4206 ft 217 kts 56°
2026-05-06 18:35 53.45134 9.62875 4017 ft 216 kts 51°
2026-05-06 18:35 53.46101 9.64812 4008 ft 218 kts 50°
2026-05-06 18:35 53.47080 9.66763 4009 ft 218 kts 51°
2026-05-06 18:35 53.48038 9.68673 4007 ft 207 kts 51°
2026-05-06 18:36 53.48929 9.70454 3977 ft 193 kts 51°
2026-05-06 18:36 53.49778 9.72153 3816 ft 188 kts 51°
2026-05-06 18:36 53.50613 9.73824 3587 ft 185 kts 51°
2026-05-06 18:36 53.51432 9.75463 3367 ft 181 kts 51°
2026-05-06 18:37 53.52232 9.77067 3104 ft 177 kts 51°
2026-05-06 18:37 53.53010 9.78626 2862 ft 171 kts 51°
2026-05-06 18:37 53.53763 9.80138 2619 ft 167 kts 51°
2026-05-06 18:37 53.54499 9.81615 2406 ft 163 kts 51°
2026-05-06 18:38 53.55216 9.83056 2188 ft 160 kts 51°
2026-05-06 18:38 53.55928 9.84486 1970 ft 159 kts 51°
2026-05-06 18:38 53.56631 9.85900 1753 ft 157 kts 51°
2026-05-06 18:38 53.57313 9.87272 1531 ft 147 kts 51°
2026-05-06 18:39 53.57943 9.88543 1336 ft 137 kts 51°
2026-05-06 18:39 53.58536 9.89742 1111 ft 130 kts 51°
2026-05-06 18:39 53.59106 9.90886 901 ft 126 kts 50°
2026-05-06 18:40 53.60222 9.93138 589 ft 124 kts 50°
2026-05-06 18:40 53.60777 9.94256 415 ft 124 kts 49°
2026-05-06 18:40 53.61329 9.95368 260 ft 124 kts 49°
2026-05-06 18:40 53.61884 9.96491 101 ft 124 kts 49°
2026-05-06 18:41 53.62414 9.97563 40 ft 110 kts 50°
2026-05-06 18:41 53.62796 9.98335 43 ft 60 kts 50°
2026-05-06 18:41 53.62993 9.98737 45 ft 40 kts 50°
2026-05-06 18:41 53.63090 9.99038 46 ft 23 kts 82°
2026-05-06 18:42 53.63083 9.99264 47 ft 16 kts 94°
2026-05-06 18:42 53.63118 9.99447 44 ft 18 kts 56°
2026-05-06 18:42 53.63189 9.99603 47 ft 14 kts 50°
2026-05-06 18:42 53.63216 9.99657 48 ft 5 kts 50°
2026-05-06 18:43 53.63240 9.99707 49 ft 6 kts 50°
2026-05-06 18:43 53.63276 9.99767 49 ft 8 kts 40°
2026-05-06 18:43 53.63330 9.99865 49 ft 13 kts 49°
2026-05-06 18:43 53.63394 9.99991 49 ft 15 kts 50°
2026-05-06 18:44 53.63427 10.00127 49 ft 12 kts 106°
2026-05-06 18:44 53.63381 10.00212 49 ft 10 kts 144°
2026-05-06 18:44 53.63322 10.00233 49 ft 9 kts 175°
2026-05-06 18:44 53.63289 10.00266 49 ft 5 kts 95°
2026-05-06 18:45 53.63291 10.00337 49 ft 6 kts 86°
2026-05-06 18:45 53.63292 10.00352 49 ft 0 kts 86°